Location: Treviso
(45.6669°N, 12.2430°E)
Time: 00:44:20
(UTC+02:00)

ISS - Pass Details

Date: 09 July 2025
Orbit: 413 x 417 km, 51.6° (Epoch: 13 July)

Event Time Altitude Azimuth Distance (km) Brightness Sun altitude
Rises 00:23:46 0° 273° (W) 2,351 0.3 -20.9°
Reaches altitude 10° 00:26:00 10° 284° (WNW) 1,490 -0.7 -21.0°
Maximum altitude 00:29:03 32° 350° (N) 745 -1.9 -21.1°
Drops below altitude 10° 00:32:06 10° 55° (NE) 1,495 -0.7 -21.2°
Sets 00:34:21 0° 66° (ENE) 2,360 0.2 -21.3°
